Dewpoint
-10 -11 -12 -9 -8 -12 -15 -10 -6 -7 -2 -2 0 0 1 -0 0 2 4 6 5 5 6 6 7 8 7 7 7 7 7 6 8 8 8 7 6 4 3 3 5 8 9 9 9 10 9 0 -1 2 3 -0 -1 -2
-11 -10 -10 -9 -6 -7 -11 -14 -6 -7 -4 -2 -0 0 0 1 -0 1 4 5 5 5 5 5 6 7 8 7 6 7 6 6 7 7 7 5 5 4 4 7 3 7 5 8 6 7 2 1 1 -1 1 1 0 -1
-9 -8 -8 -9 -8 -7 -6 -12 -6 -6 -2 -2 -0 0 0 0 -0 0 3 4 5 4 4 5 6 5 6 8 7 6 6 5 5 4 5 6 5 3 7 4 4 3 2 6 5 3 2 1 0 -0 -0 0 -0 -1
-7 -6 -6 -6 -7 -7 -7 -9 -7 -7 -2 -2 -0 -0 0 1 0 1 2 4 5 4 2 3 4 6 6 4 6 7 7 6 5 5 6 8 7 2 5 4 4 2 2 4 5 2 1 1 0 0 0 -0 -1 -1
-6 -6 -5 -5 -5 -5 -5 -8 -8 -6 -2 -2 -0 -0 -1 1 0 1 3 5 4 3 2 2 4 4 5 5 5 7 6 7 6 7 7 7 3 3 3 3 4 0 3 6 7 2 3 1 1 1 0 -1 -2 -1
-8 -6 -6 -5 -5 -5 -5 -6 -8 -6 -2 -1 -1 -0 -1 0 1 1 4 5 4 3 2 3 2 4 5 6 6 6 6 6 5 4 5 2 5 4 7 5 1 0 -1 -1 2 1 1 0 -1 -1 -1 -0 -0 -2
-9 -7 -6 -5 -4 -4 -3 -5 -7 -6 -3 -1 -1 -1 -1 0 1 1 1 3 5 3 2 1 1 3 5 5 5 5 5 5 5 4 4 4 4 4 6 5 0 -0 -1 -1 -1 -1 -1 -0 -1 -1 -0 -1 -2 -3
-9 -10 -5 -5 -6 -4 -3 -6 -6 -5 -3 -2 -1 -1 -1 -0 0 0 1 2 5 3 1 2 1 2 4 5 4 5 4 4 5 5 4 4 4 4 6 1 1 -1 -1 -1 -1 -1 -0 -1 -1 -2 -1 -3 -3 -3
-10 -11 -6 -5 -6 -5 -3 -6 -5 -4 -4 -4 -4 -1 -1 -1 -0 0 1 2 4 2 1 2 3 3 3 3 3 4 4 5 3 5 4 3 4 5 2 0 -2 -1 -1 -1 -2 -2 -2 -2 -3 -3 -5 -5 -5 -5
-9 -8 -6 -5 -4 -4 -3 -5 -4 -3 -4 -4 -1 -1 -1 -1 0 1 1 1 2 1 3 3 2 3 3 3 3 3 2 4 4 3 0 2 3 0 -1 -2 -2 -3 -4 -3 -3 -4 -3 -3 -5 -4 -4 -4 -4 -4
-7 -7 -6 -5 -4 -4 -3 -5 -3 -3 -3 -2 -1 -1 -1 -0 1 0 -1 0 -1 1 2 2 2 3 2 3 3 2 4 3 3 3 3 2 1 0 -2 -2 -4 -4 -4 -4 -5 -4 -4 -4 -4 -4 -4 -4 -4 -4
-6 -4 -4 -3 -3 -4 -4 -4 -2 -3 -1 -1 -1 -1 -0 -1 -1 0 1 0 1 3 3 2 2 1 0 -0 2 1 2 3 2 0 3 2 -1 -4 -3 -3 -3 -4 -5 -6 -5 -4 -4 -5 -5 -4 -4 -5 -4 -4
-4 -4 -3 -3 -3 -4 -4 -4 -3 -2 -2 -1 -1 -0 -2 -1 1 2 2 2 4 3 1 1 3 1 0 -0 1 -0 1 3 0 2 2 0 -5 -4 -4 -3 -4 -5 -4 -5 -6 -6 -5 -5 -4 -7 -4 -5 -5 -5
-2 -2 -3 -3 -3 -4 -4 -3 -2 -2 -1 -1 -1 0 -0 0 1 1 1 1 -0 1 1 1 1 1 -1 1 1 0 -1 -0 2 1 -0 1 -4 -4 -5 -6 -5 -5 -5 -6 -6 -5 -4 -5 -4 -4 -10 -10 -10 -9
-2 -2 -2 -2 -4 -4 -4 -3 -2 -2 -1 -1 -0 0 1 -0 0 -1 -1 -1 1 1 0 -0 -1 -1 1 1 -1 -2 0 1 -1 -2 0 -2 -4 -5 -5 -5 -5 -6 -5 -5 -5 -5 -5 -5 -9 -11 -12 -11 -11 -9
-3 -2 -3 -3 -4 -4 -4 -2 -2 -1 -1 -1 -1 -0 -1 1 2 1 1 1 1 -1 -2 -3 0 1 -2 -1 -1 1 -1 -1 -3 -2 -3 -3 -5 -6 -5 -5 -6 -6 -5 -5 -5 -4 -4 -4 -8 -10 -11 -10 -9 -8
-3 -2 -3 -3 -3 -4 -3 -2 -2 -1 -1 -1 -0 -1 -0 0 1 1 1 1 -1 -2 1 1 -1 -3 -2 -2 -3 -3 -1 0 -2 -3 -3 -3 -6 -6 -5 -5 -5 -5 -4 -4 -4 -5 -6 -5 -7 -9 -9 -8 -6 -6
-2 -3 -4 -3 -3 -3 -2 -2 -1 -2 -1 -1 1 -0 -0 -0 0 1 1 -1 -2 -3 -4 -2 -5 -3 1 -3 -4 -2 -3 -3 -3 -4 -5 -6 -7 -6 -5 -5 -4 -4 -5 -5 -5 -5 -5 -7 -7 -7 -4 -2 -1 -3
-3 -3 -3 -4 -4 -2 -2 -2 -1 -1 -1 -0 -0 0 -0 -0 1 1 -0 -2 -3 -4 -3 -2 -2 -2 -2 -3 -1 -2 -2 -2 -3 -4 -6 -7 -7 -6 -6 -5 -4 -4 -4 -3 -3 -5 -3 -2 -2 -6 -8 -6 -2 -2
-2 -2 -2 -4 -2 -3 -2 -1 -1 -2 -1 -1 -1 -0 1 1 1 1 -0 -2 -4 -2 -0 -1 -3 -2 -2 -1 -2 -1 -2 -2 -3 -4 -6 -7 -7 -6 -4 -3 -4 -5 -4 -3 -2 -2 -3 -4 -5 -4 -5 -8 -8 -6
-0 -2 -2 -3 -2 -0 -1 -1 -1 -1 -1 -0 0 0 -0 1 0 -1 -2 -3 -2 -2 -2 -1 0 -1 -2 -2 -2 -2 -2 -3 -2 -2 -2 -2 -3 -3 -4 -3 -3 -3 -3 -3 -2 -2 -3 -4 -4 -6 -8 -8 -6 -3
-2 -2 -2 -1 -1 -2 -1 -2 -2 -2 -1 -0 0 -0 -0 1 0 -0 -2 -3 -3 -3 -3 -1 -2 -3 -4 -4 -4 -3 -4 -5 -5 -6 -5 -3 -2 -3 -2 -3 -4 -4 -4 -3 -5 -9 -9 -7 -4 -2 -2 -5 -5 -4
-2 -2 -1 -2 -3 -2 -1 -1 -1 -2 0 0 -0 0 1 1 0 -2 -2 -4 -4 -3 -3 -4 -4 -4 -4 -6 -7 -6 -6 -6 -6 -5 -5 -5 -5 -5 -6 -5 -6 -6 -6 -9 -11 -6 -5 -5 -3 -3 -5 -5 -4 -4
-4 -3 -2 -2 -2 -1 -1 -1 -2 -2 -1 -1 -2 0 -0 1 -2 -2 -4 -5 -5 -4 -3 -4 -5 -7 -6 -6 -5 -6 -7 -7 -6 -6 -5 -5 -5 -7 -9 -10 -11 -10 -9 -6 -4 -3 -3 -4 -2 -3 -6 -5 -4 -4
-3 -2 -2 -1 -3 -1 -0 -1 -2 -3 -2 -3 -2 -2 -2 -4 -4 -4 -6 -4 -5 -4 -3 -4 -6 -6 -5 -5 -5 -5 -5 -5 -6 -6 -6 -7 -7 -5 -4 -4 -4 -4 -4 -3 -3 -3 -4 -3 -1 -2 -5 -6 -4 -4
-2 -2 -1 -1 -1 -2 -3 -2 -3 -2 -2 -1 -2 -3 -3 -2 -2 -2 -5 -4 -2 -2 -3 -3 -3 -3 -4 -4 -5 -5 -5 -5 -5 -4 -4 -4 -4 -3 -3 -3 -3 -3 -2 -2 -2 -3 -3 -3 -3 -4 -4 -5 -5 -3
-1 -1 -3 -5 -6 -5 -3 -4 -4 -2 -2 -2 -2 -1 -1 -1 -1 -3 -1 -1 0 0 -2 -2 -2 -3 -3 -3 -3 -3 -2 -3 -2 -3 -2 -2 -2 -2 -2 -1 -0 -1 -0 -1 -2 -3 -3 -2 -2 -3 -3 -3 -4 -3
-4 -3 -1 -3 -3 -4 -2 -1 0 -0 -3 -4 -2 0 0 1 -1 -1 0 -1 -2 -6 -7 -6 -4 -2 -1 -1 -1 -1 -3 -4 -4 -4 -4 -4 -4 -4 -4 -3 -3 -3 -3 -3 -3 -3 -2 -1 -1 -1 -2 -2 -2 -2
-3 -3 -3 -1 -2 -2 -1 -1 -3 -6 -4 -2 1 -1 -2 0 0 -1 -4 -7 -8 -8 -8 -8 -8 -8 -8 -6 -6 -6 -5 -6 -5 -4 -3 -1 -1 -1 -1 0 -1 -1 -1 -1 -1 -1 -1 -1 -0 -1 -1 -1 -1 -1
-3 -4 -2 -1 -0 -0 -1 -1 -0 -2 -3 -2 -2 -3 -1 -3 -4 -6 -7 -8 -9 -9 -9 -9 -8 -7 -7 -6 -6 -6 -5 -4 -3 -3 -2 -2 -2 -2 -2 -1 -1 -0 -0 -0 -0 -0 -1 -2 -2 -2 -2 -2 -2 -2
-2 -1 -1 -2 -3 -3 -3 -3 -3 -3 -3 -3 -1 -1 -1 -4 -6 -7 -7 -8 -7 -7 -7 -7 -6 -6 -6 -5 -4 -2 -2 -3 -3 -3 -2 -2 -2 -2 -2 -2 -2 -2 -2 -1 -1 -1 -1 -2 -2 -2 -2 -1 -2 -3
-2 -2 -2 -2 -4 -4 -3 -3 -2 -2 -2 -2 -2 -2 -3 -3 -1 -3 -5 -6 -6 -6 -5 -4 -4 -4 -4 -4 -4 -4 -4 -3 -3 -3 -3 -3 -3 -3 -3 -3 -3 -3 -2 -2 -2 -1 -1 -1 -2 -1 -2 -3 -3 -3
-2 -3 -3 -3 -3 -3 -3 -2 -3 -3 -3 -2 -3 -3 -2 -2 -2 -2 -3 -5 -5 -4 -4 -4 -5 -5 -5 -5 -5 -5 -5 -4 -4 -5 -6 -6 -6 -6 -6 -6 -6 -6 -4 -3 -3 -2 -2 -2 -2 -3 -3 -4 -5 -5
Wind_Speed
21 21 22 21 20 20 21 20 21 21 18 21 21 18 18 21 24 13 26 38 25 10 10 13 12 10 23 18 6 12 7 2 5 6 7 6 6 11 9 13 12 10 8 5 7 5 9 12 12 7 4 8 8 7
22 22 22 23 21 21 21 20 20 20 19 20 10 14 16 19 19 24 12 31 33 12 6 11 16 12 14 28 24 26 7 12 10 6 5 5 4 6 9 6 15 10 7 5 8 5 6 7 15 17 1 0 7 7
22 23 23 24 24 22 21 20 20 18 17 19 13 9 10 19 24 22 8 45 29 14 6 8 10 20 14 26 22 12 14 19 13 13 4 3 9 4 7 9 11 10 22 6 7 9 9 8 12 5 5 5 6 5
22 22 22 22 23 21 22 21 20 17 16 20 13 10 9 20 19 19 18 34 38 11 4 4 13 14 23 10 16 17 19 22 17 13 2 2 4 7 6 6 10 8 11 8 5 6 7 12 11 9 9 9 11 14
21 21 21 21 21 21 21 21 20 17 17 17 9 11 10 15 17 15 19 39 34 22 6 7 12 10 21 20 17 17 30 27 21 14 5 5 8 4 4 3 9 14 8 9 5 8 11 10 12 12 14 16 12 11
21 21 20 20 19 19 20 20 20 19 17 16 15 14 11 12 13 12 6 30 33 20 9 3 5 7 17 22 23 18 16 16 12 8 5 4 4 2 3 4 11 18 21 19 12 15 11 9 9 9 11 12 13 15
22 21 20 20 18 17 19 18 20 19 15 16 15 13 12 9 17 13 3 1 33 30 8 4 1 5 16 18 18 11 11 7 4 4 1 1 1 2 1 6 10 20 19 15 12 9 10 10 12 11 11 13 14 15
21 22 21 20 18 17 19 18 20 18 15 14 13 11 11 6 13 16 21 7 39 16 7 4 3 3 13 6 6 6 5 4 2 3 4 4 4 2 5 13 21 10 9 9 12 14 13 12 11 11 11 13 14 14
25 23 23 21 20 18 19 19 20 19 18 13 7 9 9 3 6 13 20 18 26 7 6 4 6 4 10 7 8 5 5 3 4 2 2 7 4 6 9 16 15 22 22 21 19 19 18 16 12 10 9 10 12 13
25 23 25 23 22 21 20 22 22 20 17 12 12 4 3 5 7 15 17 5 5 5 7 3 11 4 18 8 3 4 5 3 3 4 7 2 7 19 12 11 17 17 13 11 11 13 12 10 6 5 6 6 8 9
25 27 28 25 26 25 23 23 23 21 19 17 8 8 5 15 11 6 3 2 4 3 6 14 22 12 13 5 3 6 3 2 4 4 5 4 6 16 26 23 18 16 15 17 17 15 10 8 8 8 6 6 7 9
29 29 28 27 28 28 27 27 27 28 17 17 8 8 8 5 4 4 3 3 4 6 9 13 23 24 16 11 5 3 3 2 4 9 4 4 5 13 22 29 26 19 15 16 16 14 13 12 9 7 5 5 7 10
35 35 34 33 30 35 32 31 32 22 20 14 5 6 4 4 5 6 7 3 5 9 26 35 17 15 8 7 5 4 5 4 14 3 5 5 8 17 19 24 21 16 17 17 16 14 12 11 10 9 6 6 8 10
23 26 30 34 36 40 37 35 35 27 20 4 6 5 3 4 5 6 7 7 11 31 36 34 21 4 8 3 4 5 5 6 6 6 7 4 14 18 20 23 23 22 20 17 14 13 13 13 11 9 7 9 11 12
20 22 25 31 40 42 41 38 37 30 9 7 6 4 8 6 10 14 13 18 29 40 40 23 15 11 4 4 3 5 7 7 8 5 4 14 19 24 27 25 22 20 19 17 16 15 15 15 11 9 10 13 13 13
20 22 28 35 40 43 42 38 35 26 5 5 6 4 5 4 6 15 21 27 41 41 31 15 6 5 3 6 7 7 8 7 4 5 14 22 25 26 24 23 21 19 16 17 17 15 12 11 11 14 14 14 14 14
26 21 35 39 42 43 42 29 13 8 7 5 4 13 12 9 7 12 26 40 45 32 7 4 6 7 7 5 7 7 4 4 14 15 18 26 26 25 23 20 18 17 16 16 15 14 12 13 14 14 15 14 16 17
38 42 41 45 48 46 35 15 7 9 6 7 4 8 16 12 14 13 26 36 34 16 9 3 6 5 5 8 6 5 13 15 17 21 22 25 23 22 22 20 16 13 11 11 11 11 12 10 8 9 11 12 15 18
52 52 54 54 57 33 10 10 7 4 1 4 8 3 1 9 16 20 31 24 16 15 14 3 3 4 4 4 10 18 20 24 25 23 21 19 18 19 18 16 13 11 10 9 8 7 6 6 8 9 11 13 16 19
48 56 69 64 55 18 6 5 9 5 3 4 8 11 4 5 18 22 19 20 15 7 3 1 1 8 9 16 23 21 21 21 22 20 17 15 14 14 15 13 13 11 8 11 10 11 12 13 13 12 15 15 18 20
55 81 78 66 31 6 6 8 5 4 7 5 12 11 0 10 16 19 14 12 6 2 1 6 15 16 16 18 18 18 17 18 16 16 15 14 13 12 13 11 11 11 11 11 12 12 14 18 21 20 18 20 22 20
70 81 68 30 4 5 7 6 11 9 4 10 11 5 3 3 5 5 9 7 4 5 8 18 18 19 18 17 15 14 14 12 12 11 12 14 17 12 13 13 12 13 14 15 18 23 24 24 21 20 23 24 22 20
52 43 11 4 6 5 4 5 4 4 4 5 10 3 2 3 5 12 3 3 7 10 13 14 14 13 13 11 11 11 11 10 10 9 9 9 8 9 12 14 15 15 17 22 25 24 25 24 24 24 24 24 24 22
20 8 7 5 6 4 5 4 4 4 6 5 5 5 4 3 9 3 3 4 11 13 13 12 12 10 9 10 11 12 13 11 9 9 11 13 15 18 20 22 23 23 24 25 23 23 24 24 25 26 24 24 25 23
8 8 6 7 5 4 4 3 3 4 8 9 4 4 3 6 3 2 2 3 12 11 12 12 12 12 12 12 12 12 13 14 16 18 19 20 21 20 19 20 22 22 20 20 21 23 24 25 27 28 27 26 24 23
4 1 3 3 5 4 5 4 4 5 4 4 5 3 3 2 3 2 2 8 12 13 14 16 15 13 11 10 10 11 13 15 17 19 20 18 18 19 19 20 21 22 20 21 22 23 25 25 24 24 25 25 25 22
3 3 2 6 10 14 7 8 12 5 3 3 4 4 3 3 3 2 10 11 14 14 15 15 13 10 7 7 11 14 14 15 15 17 18 18 19 21 20 20 22 23 23 23 21 20 21 19 20 21 21 22 22 20
7 6 11 10 9 13 12 5 3 3 3 7 7 4 7 6 3 6 7 13 14 15 15 16 16 16 15 15 14 14 14 15 17 18 19 20 20 19 20 22 23 24 24 23 22 20 19 18 18 17 17 16 16 14
4 9 9 5 4 4 3 2 2 3 11 11 3 3 3 5 6 8 13 14 14 12 11 11 10 9 9 10 10 10 10 10 10 12 13 11 9 10 11 12 13 12 12 13 14 15 16 16 15 13 11 9 7 8
2 4 4 3 3 3 4 6 5 13 13 7 6 7 6 7 10 12 11 11 9 9 8 9 9 9 9 9 10 10 11 10 10 9 6 6 7 7 6 6 7 7 9 9 8 8 7 7 8 8 8 8 8 10
6 4 4 5 4 4 6 11 10 11 10 9 11 9 6 5 6 6 7 8 9 9 9 9 10 11 10 10 11 10 10 10 9 8 7 6 6 6 8 8 9 9 9 8 7 7 8 8 8 8 9 9 8 8
4 3 4 4 4 6 7 4 4 4 4 4 3 4 4 4 2 2 6 9 11 11 11 10 9 8 8 9 9 10 12 10 8 7 9 10 12 13 13 13 14 13 12 10 9 9 9 10 9 10 10 10 9 8
4 6 7 6 4 3 3 4 3 3 4 3 2 2 2 4 2 5 5 9 11 10 10 11 11 10 8 6 5 4 4 5 6 7 9 12 13 14 13 12 13 13 12 11 11 10 10 10 10 10 9 8 8 9
Wind_Direction
258 258 260 261 261 261 261 262 265 267 276 283 243 254 256 260 268 270 234 198 195 175 140 196 193 170 179 165 157 142 132 181 154 161 177 190 192 198 210 182 180 179 176 186 206 198 241 232 145 178 106 124 149 175
260 259 256 258 258 257 257 260 258 262 273 275 252 251 256 258 272 253 236 200 199 184 165 209 202 202 188 175 169 163 166 156 167 171 192 196 197 189 183 181 163 199 202 173 182 208 201 257 216 195 195 228 201 210
261 259 257 255 256 253 254 253 253 249 258 274 236 243 248 244 237 230 250 208 177 147 142 177 208 216 234 192 174 160 161 181 181 170 185 169 198 197 184 200 174 191 197 211 193 231 188 205 153 167 243 225 277 285
259 257 255 254 252 250 251 251 248 246 249 268 221 241 254 229 239 237 247 194 195 140 114 179 211 190 201 232 221 191 197 200 180 189 52 174 182 207 206 190 229 186 185 197 240 234 176 192 216 237 261 251 260 283
257 256 254 252 250 248 249 246 242 241 243 257 234 244 271 231 225 218 213 178 181 176 143 130 162 179 190 208 204 220 183 183 183 176 191 192 172 172 231 207 222 223 206 197 215 211 241 225 211 232 249 255 270 291
255 254 250 248 248 246 244 239 232 232 237 252 247 247 264 251 213 205 229 193 176 184 109 116 116 162 160 156 152 170 159 176 174 172 159 203 86 116 159 222 233 231 232 221 196 205 222 237 242 249 267 276 289 289
254 252 248 243 243 247 236 228 224 228 230 240 236 249 258 230 211 205 202 334 182 181 141 98 136 154 148 151 151 149 138 137 100 170 255 332 125 179 240 218 216 224 233 232 222 222 244 237 246 252 257 269 282 289
257 247 243 239 242 239 228 222 216 214 219 235 240 243 257 269 216 242 231 248 176 167 107 112 105 94 139 116 87 152 141 141 99 84 103 127 110 225 244 226 237 229 208 222 221 221 238 246 255 260 267 284 286 294
252 248 239 238 236 230 221 213 209 208 210 222 243 239 262 276 193 222 226 200 177 140 118 141 143 146 134 120 115 125 132 107 109 122 205 142 171 220 232 224 224 224 231 236 237 234 231 234 246 258 277 298 308 307
251 241 235 236 231 222 214 205 199 196 201 202 196 200 230 215 175 182 175 221 108 138 186 140 136 132 157 138 94 71 58 111 135 202 141 247 237 227 235 219 220 218 214 208 231 227 216 227 238 261 264 272 282 293
244 242 235 234 225 217 208 200 189 182 185 191 187 195 248 158 160 180 157 183 132 145 193 152 147 131 147 125 120 116 131 177 178 175 168 225 241 226 229 227 227 225 226 230 226 223 215 204 205 218 236 259 286 296
243 238 232 225 212 209 202 195 184 186 185 186 165 161 188 206 201 176 175 145 203 185 165 148 147 127 118 120 87 103 90 204 176 142 181 254 219 216 205 216 218 222 215 205 195 189 183 192 199 205 221 252 274 279
247 239 230 219 217 203 195 192 185 184 184 159 168 161 172 208 215 186 177 190 170 171 146 145 142 128 130 101 112 128 126 192 129 147 223 246 197 189 201 200 188 182 184 175 170 176 184 188 191 197 219 257 272 281
231 219 212 207 199 188 185 187 180 183 177 192 152 198 225 195 224 210 192 185 161 142 143 142 132 110 123 110 132 124 156 147 201 211 223 178 201 178 165 162 167 177 177 180 183 186 190 192 194 212 264 285 294 302
193 188 184 183 181 178 179 180 179 181 189 206 142 228 219 236 276 237 214 142 141 142 138 132 103 98 91 116 163 134 173 207 214 226 151 170 174 164 167 173 177 179 181 180 184 189 197 206 232 260 283 292 298 309
178 171 177 171 172 172 173 174 179 191 202 205 182 245 259 266 249 232 164 141 143 141 135 97 105 144 162 147 161 191 184 215 193 196 161 177 172 171 169 174 178 175 179 182 194 203 226 247 260 283 292 301 302 304
190 183 177 171 169 168 168 164 168 192 203 218 185 203 262 292 220 191 158 147 153 144 128 117 125 178 126 183 188 178 205 143 139 163 164 171 171 170 169 170 173 170 174 186 198 210 225 245 270 289 298 299 293 293
197 191 177 170 167 163 163 172 161 182 214 219 154 150 220 259 204 180 154 157 153 146 124 108 107 161 164 178 182 151 136 142 160 162 161 162 165 166 169 170 171 176 188 202 211 223 242 262 273 296 305 301 292 286
204 192 179 171 165 155 139 179 164 167 205 132 108 88 287 197 197 169 161 150 141 122 118 106 139 175 168 194 144 148 157 159 155 153 155 159 170 176 175 180 186 193 199 206 212 226 234 240 260 279 293 287 277 283
198 188 175 168 162 149 137 133 143 138 146 140 137 134 229 212 156 143 132 136 121 92 67 28 76 104 132 122 144 151 152 148 144 143 152 162 175 182 183 192 201 204 215 216 216 229 250 269 273 277 280 280 285 287
160 157 158 157 160 154 121 128 111 141 124 128 131 105 303 105 123 129 121 120 76 82 101 110 100 110 122 126 133 139 146 152 156 159 165 169 187 184 188 200 203 211 209 216 226 234 249 255 263 273 275 280 280 282
128 146 148 154 121 97 88 88 128 143 106 129 119 108 109 74 76 97 124 108 72 90 120 125 122 122 117 122 129 139 143 151 158 165 169 176 169 187 198 207 213 225 232 235 253 265 272 274 267 263 266 271 279 285
133 144 150 121 94 77 85 111 89 114 124 142 138 99 88 85 111 128 113 125 107 134 133 138 133 134 137 140 145 152 161 162 162 174 182 177 188 209 222 228 235 240 245 260 269 264 265 266 263 263 268 271 275 278
116 73 56 64 75 92 81 77 103 104 132 167 148 116 98 103 142 187 134 140 143 163 167 161 154 152 148 153 166 177 184 187 190 196 209 218 227 236 243 250 254 259 262 264 265 268 270 271 263 263 271 268 271 272
50 22 36 58 68 96 88 69 118 116 123 115 76 86 112 153 129 127 137 125 152 154 159 167 173 180 184 195 201 207 211 214 216 221 233 240 243 243 247 250 255 257 259 261 267 274 273 264 260 267 271 271 274 274
91 208 136 124 140 113 128 139 138 114 78 65 67 87 56 64 89 120 162 146 155 166 166 173 175 182 195 205 213 219 227 230 233 235 237 236 240 243 250 257 260 259 254 258 265 268 269 271 273 272 273 268 267 267
111 111 149 135 116 112 89 86 104 77 77 97 143 139 110 101 147 148 114 133 144 155 172 173 170 172 181 214 224 218 215 207 216 228 231 230 231 234 238 246 254 261 260 265 268 270 272 274 275 274 274 271 268 264
53 75 90 71 78 99 107 104 106 139 137 145 138 147 157 171 109 110 152 167 170 166 171 177 181 184 190 198 215 230 238 240 242 247 253 254 254 256 255 255 257 262 266 267 267 266 268 272 277 276 274 269 269 265
58 107 100 82 83 101 127 121 132 118 144 142 121 134 149 76 107 133 142 149 149 152 161 174 180 192 203 213 223 235 244 249 253 252 253 260 267 262 260 264 273 270 269 270 267 267 266 266 264 263 259 253 243 242
138 120 92 60 68 83 40 27 87 94 129 91 96 104 88 102 124 129 143 154 167 179 185 196 192 205 225 242 259 265 254 242 238 244 254 253 262 275 285 278 281 281 277 274 271 271 270 262 258 249 231 225 234 243
115 96 69 66 85 65 89 103 101 102 105 86 96 95 103 115 130 160 181 193 203 208 210 217 220 227 230 237 236 225 228 230 229 235 245 253 261 274 283 281 282 285 294 290 272 264 264 259 251 245 237 230 226 226
77 78 118 103 104 121 106 98 94 85 74 76 61 96 117 109 115 215 216 223 226 223 220 221 225 229 231 239 246 237 233 232 242 254 263 266 270 271 267 265 267 272 277 281 277 268 258 250 246 242 226 215 216 221
87 74 96 103 112 120 113 111 90 94 81 95 102 122 131 139 146 247 239 223 220 222 219 217 216 217 231 246 269 251 243 248 259 269 277 283 288 290 287 283 273 262 257 258 263 257 247 238 231 222 212 201 194 190
Height
1365 1366 1367 1368 1369 1369 1369 1369 1368 1368 1369 1367 1367 1363 1365 1370 1373 1375 1381 1377 1387 1390 1391 1400 1401 1403 1415 1421 1428 1435 1448 1453 1457 1465 1469 1464 1459 1457 1462 1463 1477 1483 1490 1494 1496 1505 1505 1478 1480 1487 1485 1485 1487 1490
1359 1360 1361 1362 1364 1364 1364 1365 1366 1364 1363 1367 1363 1364 1364 1359 1364 1372 1372 1380 1387 1388 1396 1396 1401 1410 1412 1417 1424 1428 1436 1439 1443 1449 1450 1451 1453 1448 1453 1467 1463 1481 1474 1480 1481 1480 1474 1474 1475 1480 1483 1486 1488 1490
1353 1354 1355 1356 1358 1359 1360 1361 1362 1364 1363 1363 1363 1365 1367 1367 1368 1373 1370 1374 1375 1386 1394 1404 1407 1406 1411 1413 1418 1426 1432 1435 1435 1438 1442 1445 1450 1444 1454 1453 1454 1461 1466 1468 1471 1467 1468 1472 1474 1479 1483 1486 1487 1489
1347 1348 1349 1350 1352 1354 1355 1356 1357 1359 1360 1363 1362 1365 1367 1367 1363 1364 1367 1368 1378 1385 1393 1399 1402 1407 1406 1416 1420 1420 1427 1435 1434 1438 1445 1447 1446 1444 1447 1450 1452 1454 1459 1463 1465 1465 1468 1472 1475 1479 1482 1484 1485 1486
1341 1342 1343 1344 1346 1349 1350 1351 1352 1353 1356 1358 1359 1362 1363 1362 1363 1362 1360 1365 1372 1381 1389 1396 1396 1403 1407 1411 1417 1421 1426 1431 1434 1439 1442 1443 1441 1446 1446 1449 1450 1449 1453 1460 1461 1463 1466 1470 1473 1477 1480 1481 1482 1482
1335 1336 1338 1339 1341 1343 1345 1347 1349 1351 1353 1353 1354 1358 1357 1356 1356 1359 1360 1362 1366 1373 1380 1393 1401 1405 1407 1411 1414 1423 1424 1431 1431 1432 1436 1438 1440 1443 1447 1449 1447 1450 1451 1453 1456 1461 1464 1467 1470 1473 1475 1478 1479 1480
1329 1331 1333 1335 1336 1338 1341 1344 1346 1347 1349 1353 1357 1357 1358 1357 1358 1357 1358 1360 1363 1373 1377 1396 1402 1403 1405 1411 1418 1422 1426 1430 1435 1438 1438 1437 1442 1445 1447 1445 1445 1446 1450 1452 1454 1457 1461 1465 1468 1469 1472 1475 1476 1476
1323 1326 1328 1330 1333 1335 1337 1340 1344 1347 1348 1351 1354 1356 1356 1356 1355 1354 1355 1356 1363 1370 1375 1389 1401 1405 1406 1411 1417 1423 1426 1432 1435 1436 1439 1442 1447 1450 1448 1443 1445 1444 1447 1449 1452 1455 1460 1464 1465 1466 1468 1471 1472 1471
1317 1319 1322 1325 1328 1332 1335 1338 1342 1346 1349 1352 1351 1349 1351 1351 1352 1353 1356 1360 1360 1366 1371 1382 1391 1400 1406 1412 1419 1425 1428 1432 1436 1439 1442 1443 1447 1446 1438 1438 1439 1442 1445 1449 1451 1454 1456 1459 1461 1463 1465 1466 1467 1468
1309 1312 1316 1319 1323 1328 1332 1337 1342 1347 1350 1353 1355 1356 1354 1352 1356 1360 1364 1359 1356 1364 1367 1370 1380 1388 1397 1404 1414 1421 1424 1431 1436 1441 1441 1444 1435 1433 1434 1434 1437 1439 1442 1445 1449 1450 1451 1455 1458 1461 1463 1465 1466 1466
1300 1304 1308 1313 1318 1323 1328 1334 1340 1346 1349 1351 1351 1351 1353 1355 1356 1354 1353 1354 1358 1362 1361 1366 1372 1378 1397 1402 1410 1418 1426 1433 1436 1438 1441 1437 1423 1422 1427 1429 1434 1439 1441 1443 1446 1448 1450 1453 1457 1459 1460 1460 1461 1462
1291 1295 1300 1306 1312 1318 1324 1331 1337 1341 1344 1347 1349 1352 1354 1353 1352 1352 1350 1355 1353 1350 1351 1357 1371 1378 1391 1401 1411 1420 1425 1431 1430 1433 1438 1429 1407 1411 1416 1422 1429 1435 1439 1439 1442 1445 1448 1452 1453 1455 1457 1457 1457 1458
1279 1284 1290 1297 1303 1312 1320 1327 1333 1340 1344 1347 1349 1352 1351 1350 1345 1342 1342 1344 1339 1337 1346 1352 1369 1380 1394 1402 1412 1415 1426 1433 1433 1440 1432 1409 1403 1407 1410 1417 1425 1432 1437 1439 1440 1442 1445 1447 1450 1451 1453 1453 1453 1453
1266 1271 1278 1286 1295 1306 1316 1324 1332 1339 1344 1344 1344 1345 1346 1339 1335 1328 1324 1321 1322 1328 1338 1352 1364 1376 1387 1398 1406 1412 1421 1429 1428 1423 1405 1400 1400 1405 1410 1415 1423 1430 1435 1435 1436 1439 1443 1446 1447 1447 1447 1449 1448 1447
1263 1269 1275 1283 1292 1303 1314 1323 1331 1337 1340 1340 1340 1338 1336 1332 1327 1323 1322 1321 1326 1334 1343 1355 1367 1376 1388 1399 1400 1406 1415 1414 1402 1387 1388 1394 1398 1404 1408 1413 1421 1426 1427 1429 1434 1439 1441 1443 1444 1443 1443 1443 1442 1441
1263 1269 1275 1282 1292 1304 1314 1324 1333 1337 1336 1334 1334 1333 1328 1325 1323 1321 1317 1318 1329 1337 1344 1349 1366 1380 1385 1384 1389 1395 1395 1386 1378 1382 1385 1389 1396 1401 1407 1414 1419 1420 1421 1424 1432 1436 1438 1439 1439 1438 1437 1437 1437 1436
1262 1265 1273 1283 1294 1306 1316 1323 1328 1333 1332 1330 1327 1328 1328 1327 1325 1320 1317 1321 1329 1330 1336 1348 1360 1368 1370 1375 1377 1376 1374 1371 1375 1379 1384 1391 1397 1402 1405 1410 1413 1413 1417 1423 1428 1431 1433 1433 1432 1431 1432 1433 1432 1431
1250 1260 1271 1282 1294 1307 1315 1321 1325 1327 1325 1322 1321 1322 1329 1330 1327 1321 1320 1325 1327 1332 1339 1346 1350 1357 1362 1362 1361 1363 1368 1374 1378 1383 1387 1392 1395 1398 1403 1407 1410 1413 1418 1422 1425 1426 1427 1428 1428 1428 1428 1429 1429 1427
1232 1247 1266 1278 1287 1298 1308 1317 1319 1320 1320 1318 1315 1321 1322 1323 1324 1323 1325 1328 1333 1337 1344 1347 1350 1350 1351 1350 1354 1363 1370 1373 1376 1381 1386 1391 1395 1398 1401 1405 1408 1411 1415 1417 1420 1422 1423 1424 1424 1425 1425 1426 1425 1423
1216 1232 1257 1276 1290 1298 1304 1308 1314 1315 1317 1320 1321 1323 1326 1323 1323 1326 1331 1335 1338 1343 1346 1350 1349 1349 1353 1354 1359 1364 1368 1371 1375 1380 1385 1389 1393 1397 1400 1403 1406 1410 1413 1414 1416 1418 1419 1420 1421 1421 1421 1421 1419 1417
1210 1229 1256 1279 1292 1295 1299 1304 1309 1313 1317 1320 1322 1322 1327 1325 1327 1332 1336 1339 1344 1349 1351 1352 1350 1355 1356 1358 1362 1365 1370 1374 1377 1381 1384 1389 1394 1396 1399 1402 1405 1408 1410 1412 1414 1415 1416 1415 1415 1416 1415 1414 1413 1412
1228 1249 1268 1281 1286 1291 1298 1302 1308 1312 1313 1315 1319 1325 1328 1329 1332 1338 1341 1344 1347 1350 1351 1352 1356 1358 1360 1364 1367 1371 1375 1378 1381 1383 1386 1390 1393 1396 1399 1403 1404 1405 1407 1409 1410 1409 1409 1409 1410 1410 1409 1408 1407 1406
1258 1271 1275 1278 1283 1292 1302 1302 1307 1310 1315 1320 1324 1326 1328 1332 1336 1341 1345 1346 1349 1350 1353 1356 1358 1362 1365 1368 1371 1375 1377 1380 1382 1385 1387 1389 1392 1395 1398 1400 1402 1403 1403 1403 1404 1403 1403 1403 1403 1403 1402 1403 1402 1401
1256 1262 1270 1279 1286 1295 1299 1302 1307 1311 1315 1318 1321 1325 1329 1334 1339 1340 1340 1343 1347 1350 1354 1357 1360 1364 1367 1369 1372 1375 1378 1380 1382 1383 1385 1387 1388 1390 1391 1393 1394 1395 1396 1396 1396 1396 1396 1395 1396 1397 1396 1396 1396 1395
1266 1280 1281 1286 1290 1295 1302 1308 1308 1309 1313 1315 1320 1326 1331 1332 1334 1338 1337 1340 1345 1348 1350 1354 1359 1362 1365 1368 1370 1372 1375 1376 1378 1379 1380 1382 1384 1386 1386 1388 1389 1390 1390 1390 1389 1389 1389 1389 1390 1390 1390 1389 1389 1389
1282 1287 1287 1288 1293 1296 1303 1308 1309 1309 1312 1316 1324 1329 1328 1331 1334 1338 1338 1341 1344 1347 1351 1354 1357 1360 1363 1365 1368 1370 1372 1373 1375 1376 1378 1380 1381 1381 1381 1383 1383 1383 1384 1384 1383 1383 1383 1382 1381 1381 1381 1381 1382 1383
1282 1286 1285 1283 1284 1289 1300 1305 1307 1310 1316 1321 1327 1329 1330 1332 1338 1338 1341 1344 1346 1348 1351 1355 1357 1358 1361 1364 1366 1367 1368 1369 1371 1373 1374 1374 1375 1375 1375 1375 1375 1376 1376 1376 1376 1376 1375 1374 1374 1373 1373 1374 1375 1376
1277 1282 1283 1288 1290 1295 1301 1307 1312 1316 1316 1320 1324 1328 1331 1331 1332 1337 1341 1343 1345 1348 1351 1354 1356 1358 1359 1360 1361 1364 1366 1367 1369 1369 1369 1369 1368 1368 1367 1367 1367 1367 1368 1368 1368 1368 1368 1368 1367 1367 1367 1368 1369 1371
1287 1291 1293 1297 1299 1302 1306 1309 1309 1311 1314 1318 1323 1324 1327 1331 1336 1338 1340 1341 1344 1347 1349 1351 1353 1354 1356 1359 1361 1362 1363 1363 1364 1364 1365 1364 1362 1362 1361 1361 1361 1361 1361 1361 1360 1360 1361 1361 1361 1361 1362 1363 1365 1367
1294 1294 1296 1300 1302 1306 1312 1312 1312 1312 1316 1318 1320 1325 1329 1332 1334 1336 1340 1343 1345 1347 1349 1350 1352 1354 1355 1358 1358 1359 1360 1361 1363 1363 1361 1359 1359 1358 1356 1357 1357 1357 1356 1356 1356 1356 1356 1357 1357 1358 1359 1361 1362 1364
1297 1298 1301 1305 1311 1315 1315 1315 1316 1318 1319 1322 1324 1327 1331 1334 1337 1339 1341 1343 1345 1347 1348 1349 1351 1353 1353 1355 1359 1360 1360 1360 1358 1357 1355 1355 1354 1354 1354 1354 1354 1354 1354 1353 1354 1354 1355 1355 1356 1356 1358 1359 1360 1361
1299 1301 1303 1308 1315 1318 1318 1320 1322 1324 1326 1328 1330 1332 1334 1336 1339 1340 1341 1342 1344 1345 1346 1347 1349 1351 1352 1353 1354 1353 1353 1353 1351 1351 1351 1351 1350 1350 1350 1350 1351 1351 1351 1351 1351 1352 1352 1353 1354 1354 1355 1356 1358 1359
1302 1304 1306 1309 1314 1317 1319 1320 1322 1327 1329 1331 1334 1335 1336 1337 1339 1340 1340 1341 1342 1341 1344 1348 1350 1350 1350 1349 1348 1347 1348 1347 1347 1348 1347 1347 1346 1345 1344 1344 1344 1345 1346 1347 1348 1349 1350 1350 1351 1352 1353 1355 1356 1358